[[{"header":{"parameterUnit":"m.s-1","parameterCategory":1,"la1":30.2991,"la2":30.254,"lo1":-89.0895,"lo2":-89.0444,"dy":0.0017,"dx":0.0017,"nx":28,"ny":28,"refTime":"2023-11-11T09:00:00:Z","depth":0,"parameterNumber":2,"parameterNumberName":"U-component_of_WINDS"},"data":[0,0,0,0,0,0,0,0,0,0,0,0,0,0,0,0,0,0,0,0,0,0,0,0,0,0,0,0,0,0,0,0,0,0,0,0,0,0,0,0,0,0,0,0,0,0,0,0,0,0,0,0,0,0,0,0,0,0,-2.3457,-2.3457,0,-2.3515,-2.3515,-2.3516,-2.3467,-2.3465,-2.3463,-2.3461,-2.352,-2.3523,-2.3527,0,0,0,0,0,0,0,0,0,0,0,0,0,-2.3303,-2.3307,-2.3457,-2.3457,-2.3458,-2.3514,-2.3515,-2.3516,-2.3467,-2.3465,-2.3462,-2.346,-2.3519,-2.3523,-2.3527,0,0,0,0,0,0,0,0,0,0,0,0,0,-2.3367,-2.3308,-2.3457,-2.3441,-2.344,-2.3514,-2.3515,-2.3516,-2.3468,-2.3465,-2.3462,-2.3459,-2.3517,-2.3522,-2.3528,-2.3621,0,0,-2.3543,-2.3546,0,0,0,0,0,0,0,0,-2.3363,-2.3372,-2.3442,-2.3442,-2.3441,-2.348,-2.3483,-2.3551,-2.3469,-2.3457,-2.3461,-2.3457,-2.3509,-2.3515,-2.3532,-2.3624,-2.3626,-2.3544,-2.3547,-2.3549,-2.3551,0,0,0,0,0,0,0,-2.3359,-2.3369,-2.3479,-2.3443,-2.3443,-2.343,-2.3436,-2.3496,-2.35,-2.3458,-2.3455,-2.3462,-2.3508,-2.3528,-2.3533,-2.3627,-2.3544,-2.3548,-2.3552,-2.3554,-2.3798,-2.3801,0,0,0,0,0,0,-2.3356,-2.3366,-2.3478,-2.3481,-2.3394,-2.3436,-2.3442,-2.3471,-2.3499,-2.35,-2.3465,-2.346,-2.352,-2.3527,-2.3535,-2.3647,-2.3549,-2.3554,-2.3557,-2.3795,-2.3799,-2.3802,0,0,0,0,0,0,-2.3353,-2.3366,-2.3475,-2.3423,-2.3436,-2.3442,-2.3474,-2.3474,-2.3493,-2.3504,-2.3504,-2.3484,-2.3518,-2.3528,-2.36,-2.3649,-2.3556,-2.3561,-2.3791,-2.3796,-2.3801,-2.3871,0,0,0,0,0,0,-2.3349,-2.3366,-2.3401,-2.3424,-2.3439,-2.354,-2.3477,-2.3477,-2.3502,-2.3496,-2.3522,-2.3523,-2.3516,-2.3593,-2.3605,-2.3654,-2.3565,-2.3786,-2.3793,-2.3799,-2.3865,-2.3878,-2.389,0,0,0,0,0,-2.3343,-2.3419,-2.3403,-2.3417,-2.3483,-2.3542,-2.3551,-2.3542,-2.3506,-2.3542,-2.3549,-2.3522,-2.3641,-2.36,-2.3614,-2.3665,-2.3783,-2.3791,-2.3799,-2.3859,-2.3875,-2.3889,0,0,0,0,0,0,-2.3401,-2.3421,-2.3405,-2.3489,-2.3515,-2.3534,-2.3579,-2.3559,-2.3595,-2.3588,-2.3575,-2.3581,-2.3657,-2.3668,-2.3623,-2.3757,-2.3706,-2.3717,-2.3748,-2.3763,-2.3776,-2.3772,-2.357,0,0,0,0,0,-2.3424,-2.347,-2.3485,-2.3558,-2.3572,-2.3574,-2.3599,-2.359,-2.3615,-2.3625,-2.3638,-2.3664,-2.3707,-2.3735,-2.3775,-2.3865,-2.3871,-2.3907,-2.392,-2.393,-2.394,-2.3989,-2.4006,-2.3827,-2.3827,-2.3827,0,0,-2.3471,-2.3488,-2.3518,-2.357,-2.3589,-2.3637,-2.3583,-2.3636,-2.3672,-2.3633,-2.3703,-2.3713,-2.374,-2.3822,-2.3859,-2.3834,-2.399,-2.394,-2.3948,-2.3952,-2.3999,-2.4016,-2.4031,-2.3833,-2.3832,-2.3831,0,0,-2.3582,-2.3599,-2.3662,-2.3682,-2.3711,-2.3711,-2.3727,-2.3749,-2.3755,-2.3824,-2.3796,-2.3838,-2.3912,-2.3934,-2.3954,-2.4073,-2.4051,-2.4087,-2.4153,-2.4201,-2.4215,-2.4227,-2.4271,-2.4287,-2.4096,-2.4096,-2.4097,0,-2.3637,-2.3709,-2.3697,-2.3753,-2.3778,-2.3745,-2.3809,-2.3829,-2.3869,-2.3887,-2.3858,-2.3951,-2.3967,-2.4054,-2.4083,-2.41,-2.4118,-2.4084,-2.4214,-2.4226,-2.4238,-2.4279,-2.4295,-2.4101,-2.41,-2.41,-2.4099,0,-2.3776,-2.3827,-2.3874,-2.3915,-2.3944,-2.4004,-2.4001,-2.4032,-2.402,-2.4024,-2.4095,-2.4113,-2.4157,-2.4176,-2.4165,-2.4262,-2.4246,-2.4216,-2.4164,-2.4259,-2.4298,-2.4314,-2.4107,-2.4105,-2.4104,-2.4103,0,0,-2.3926,-2.3959,-2.3977,-2.3996,-2.4025,-2.4064,-2.4122,-2.4165,-2.4192,-2.4221,-2.427,-2.4333,-2.4306,-2.4329,-2.432,-2.4362,-2.4456,-2.4326,-2.4327,-2.4351,-2.4565,-2.4589,-2.4608,-2.4441,-2.4444,-2.4446,-2.4564,0,-2.404,-2.4142,-2.4133,-2.4229,-2.4276,-2.4246,-2.4296,-2.432,-2.4325,-2.4365,-2.437,-2.4416,-2.4375,-2.4389,-2.4429,-2.4436,-2.4499,-2.4428,-2.4487,-2.4489,-2.4483,-2.4628,-2.4653,-2.4763,-2.4578,-2.4581,-2.4583,0,-2.4186,-2.4221,-2.4322,-2.4345,-2.4364,-2.441,-2.4449,-2.4488,-2.4514,-2.4514,-2.454,-2.4524,-2.4582,-2.4529,-2.461,-2.4561,-2.4585,-2.4592,-2.4596,-2.4602,-2.4543,-2.4639,-2.4798,-2.4815,-2.4606,-2.4605,-2.4603,0,-2.4287,-2.4359,-2.4429,-2.4445,-2.4473,-2.4506,-2.4519,-2.4542,-2.4569,-2.4603,-2.462,-2.466,-2.4682,-2.4713,-2.4708,-2.4669,-2.4791,-2.4737,-2.4794,-2.4794,-2.4822,-2.4821,-2.4988,-2.4835,-2.4834,-2.4834,-2.4834,0,-2.4416,-2.4479,-2.4475,-2.4518,-2.4589,-2.4577,-2.4647,-2.4656,-2.4677,-2.4722,-2.4697,-2.4739,-2.4729,-2.4771,-2.4767,-2.4835,-2.4845,-2.4847,-2.4846,-2.4851,-2.4851,-2.4867,-2.486,-2.4838,-2.4837,-2.4837,-2.4836,0,-2.4541,-2.4541,-2.4615,-2.4636,-2.4642,-2.4694,-2.4711,-2.4752,-2.4754,-2.4811,-2.4824,-2.4828,-2.4876,-2.4873,-2.4927,-2.4925,-2.5009,-2.4998,-2.5001,-2.4999,-2.5057,-2.5052,-2.5241,-2.5266,-2.5096,-2.5097,-2.5099,0,-2.4624,-2.4672,-2.4698,-2.4726,-2.4742,-2.4788,-2.4815,-2.4805,-2.4834,-2.4868,-2.4905,-2.4951,-2.4987,-2.5065,-2.5073,-2.5115,-2.5105,-2.5169,-2.5111,-2.5115,-2.5108,-2.5106,-2.5111,-2.518,-2.5182,-2.5184,-2.5185,0,-2.4772,-2.4769,-2.4809,-2.485,-2.4883,-2.4914,-2.4943,-2.4967,-2.4961,-2.4995,-2.5044,-2.5072,-2.5128,-2.5174,-2.5214,-2.5227,-2.5206,-2.5203,-2.5219,-2.5225,-2.5225,-2.5227,-2.5033,-2.5199,-2.5198,-2.5197,-2.5196,-2.5195,-2.4879,-2.4921,-2.4946,-2.4992,-2.5012,-2.504,-2.508,-2.5087,-2.5128,-2.5173,-2.5164,-2.522,-2.5245,-2.5296,-2.5313,-2.5356,-2.5333,-2.5355,-2.5361,-2.5367,-2.5375,-2.5217,-2.5363,-2.5362,-2.5362,-2.5361,-2.5361,0,-2.5027,-2.5041,-2.5083,-2.5125,-2.5161,-2.5137,-2.5167,-2.5199,-2.5249,-2.5273,-2.531,-2.5367,-2.5411,-2.5422,-2.5465,-2.5498,-2.5489,-2.5509,-2.5508,-2.5511,-2.5392,-2.5375,-2.5516,-2.5516,-2.5516,-2.5516,-2.5516,-2.5516,-2.5108,-2.5178,-2.5179,-2.5259,-2.5272,-2.5327,-2.5346,-2.5372,-2.5391,-2.5456,-2.5493,-2.55,-2.552,-2.5564,-2.5604,-2.5606,-2.5623,-2.5648,-2.5646,-2.5535,-2.5519,-2.5505,-2.5489,-2.5651,-2.5652,-2.5762,-2.5763,-2.5764]},{"header":{"parameterUnit":"m.s-1","parameterCategory":1,"la1":30.2991,"la2":30.254,"lo1":-89.0895,"lo2":-89.0444,"dy":0.0017,"dx":0.0017,"nx":28,"ny":28,"refTime":"2023-11-11T09:00:00:Z","depth":0,"parameterNumber":3,"parameterNumberName":"V-component_of_WINDS"},"data":[0,0,0,0,0,0,0,0,0,0,0,0,0,0,0,0,0,0,0,0,0,0,0,0,0,0,0,0,0,0,0,0,0,0,0,0,0,0,0,0,0,0,0,0,0,0,0,0,0,0,0,0,0,0,0,0,0,0,-4.2681,-4.2682,0,-4.27,-4.27,-4.27,-4.2644,-4.2643,-4.2641,-4.2639,-4.2656,-4.2658,-4.266,0,0,0,0,0,0,0,0,0,0,0,0,0,-4.2595,-4.2597,-4.2681,-4.2682,-4.2682,-4.27,-4.27,-4.27,-4.2645,-4.2643,-4.2641,-4.2639,-4.2655,-4.2657,-4.266,0,0,0,0,0,0,0,0,0,0,0,0,0,-4.2625,-4.2597,-4.2681,-4.2656,-4.2654,-4.27,-4.27,-4.27,-4.2645,-4.2643,-4.264,-4.2638,-4.2654,-4.2657,-4.266,-4.273,0,0,-4.2669,-4.2671,0,0,0,0,0,0,0,0,-4.2623,-4.2628,-4.266,-4.2658,-4.2656,-4.2667,-4.2675,-4.271,-4.2646,-4.2649,-4.2639,-4.2636,-4.2661,-4.2664,-4.2673,-4.273,-4.2731,-4.267,-4.2671,-4.2673,-4.2674,0,0,0,0,0,0,0,-4.2621,-4.2627,-4.2688,-4.266,-4.2658,-4.2643,-4.2645,-4.2682,-4.2669,-4.2648,-4.2644,-4.2647,-4.266,-4.267,-4.2673,-4.2731,-4.2669,-4.2672,-4.2674,-4.2675,-4.2847,-4.2849,0,0,0,0,0,0,-4.2623,-4.2626,-4.2688,-4.2689,-4.2633,-4.2647,-4.2648,-4.2666,-4.2668,-4.2666,-4.2649,-4.2644,-4.2666,-4.2669,-4.2673,-4.2754,-4.2673,-4.2676,-4.2677,-4.2844,-4.2847,-4.285,0,0,0,0,0,0,-4.2621,-4.2629,-4.2687,-4.2656,-4.2663,-4.2651,-4.2671,-4.2668,-4.2678,-4.2669,-4.2666,-4.2662,-4.2664,-4.2669,-4.2716,-4.2754,-4.2677,-4.268,-4.2841,-4.2845,-4.2849,-4.2918,0,0,0,0,0,0,-4.2619,-4.2629,-4.2656,-4.2657,-4.2664,-4.2731,-4.2674,-4.267,-4.2683,-4.2677,-4.2681,-4.2679,-4.2662,-4.2712,-4.2719,-4.2757,-4.2682,-4.2837,-4.2843,-4.2848,-4.2912,-4.2924,-4.2934,0,0,0,0,0,-4.2616,-4.2674,-4.2657,-4.2665,-4.2698,-4.2733,-4.2737,-4.2718,-4.2687,-4.2713,-4.2708,-4.2679,-4.2749,-4.2717,-4.2725,-4.2764,-4.2835,-4.2841,-4.2847,-4.2908,-4.2922,-4.2934,0,0,0,0,0,0,-4.2676,-4.2674,-4.2655,-4.2716,-4.2725,-4.2724,-4.2757,-4.2734,-4.2752,-4.2745,-4.272,-4.2721,-4.2773,-4.2773,-4.2738,-4.2831,-4.2786,-4.2794,-4.283,-4.2843,-4.2854,-4.2853,-4.2684,0,0,0,0,0,-4.2697,-4.2726,-4.2722,-4.2776,-4.2782,-4.2769,-4.2783,-4.2768,-4.2776,-4.278,-4.2778,-4.2787,-4.281,-4.2827,-4.2848,-4.2912,-4.2912,-4.2943,-4.2954,-4.2963,-4.297,-4.3003,-4.3017,-4.2871,-4.2871,-4.2871,0,0,-4.2739,-4.2741,-4.2761,-4.2788,-4.2794,-4.2824,-4.2772,-4.2807,-4.2829,-4.2785,-4.283,-4.2829,-4.2836,-4.2893,-4.2917,-4.2894,-4.301,-4.2971,-4.2978,-4.298,-4.3011,-4.3025,-4.3037,-4.2875,-4.2874,-4.2873,0,0,-4.2831,-4.2836,-4.2882,-4.2888,-4.2898,-4.2889,-4.29,-4.2902,-4.29,-4.2945,-4.2912,-4.2938,-4.298,-4.2987,-4.2996,-4.3091,-4.3064,-4.3099,-4.3155,-4.3188,-4.32,-4.321,-4.3244,-4.3256,-4.3106,-4.3106,-4.3106,0,-4.2882,-4.2928,-4.2907,-4.2944,-4.2957,-4.2919,-4.2964,-4.2971,-4.2987,-4.2996,-4.2971,-4.3022,-4.3025,-4.3082,-4.3105,-4.3114,-4.3125,-4.3098,-4.32,-4.321,-4.3219,-4.3251,-4.3264,-4.311,-4.311,-4.3109,-4.3109,0,-4.299,-4.3022,-4.3057,-4.3075,-4.3091,-4.3132,-4.3116,-4.3135,-4.3118,-4.3112,-4.3158,-4.316,-4.3181,-4.3193,-4.3177,-4.3248,-4.3233,-4.3204,-4.3158,-4.3237,-4.3267,-4.3279,-4.3116,-4.3114,-4.3113,-4.3112,0,0,-4.3121,-4.3127,-4.314,-4.3147,-4.3155,-4.3179,-4.3217,-4.3239,-4.3256,-4.3268,-4.3299,-4.3336,-4.3309,-4.3319,-4.3303,-4.3332,-4.3407,-4.3299,-4.3299,-4.3319,-4.3485,-4.3507,-4.3522,-4.339,-4.3392,-4.3394,-4.3485,0,-4.3212,-4.328,-4.3262,-4.3329,-4.3358,-4.3322,-4.3356,-4.3364,-4.3359,-4.3382,-4.3376,-4.3402,-4.3365,-4.3371,-4.3398,-4.3392,-4.344,-4.3385,-4.3418,-4.3419,-4.3417,-4.3537,-4.356,-4.3646,-4.3496,-4.3498,-4.3499,0,-4.3327,-4.3345,-4.3415,-4.3418,-4.3429,-4.346,-4.3478,-4.3501,-4.3509,-4.3503,-4.3515,-4.3493,-4.353,-4.3485,-4.3535,-4.3499,-4.3511,-4.351,-4.3513,-4.3515,-4.3464,-4.3542,-4.3673,-4.3686,-4.3517,-4.3516,-4.3515,0,-4.3416,-4.3457,-4.3504,-4.3511,-4.3516,-4.3538,-4.3541,-4.3546,-4.356,-4.3576,-4.3585,-4.3605,-4.3615,-4.3631,-4.3614,-4.3582,-4.3667,-4.362,-4.3663,-4.3664,-4.3682,-4.3681,-4.3817,-4.3691,-4.3691,-4.369,-4.369,0,-4.3519,-4.3563,-4.3544,-4.3573,-4.3621,-4.36,-4.3648,-4.3646,-4.3652,-4.3679,-4.3649,-4.3675,-4.3652,-4.3676,-4.3663,-4.3707,-4.3712,-4.3708,-4.3704,-4.371,-4.3711,-4.3718,-4.3711,-4.3694,-4.3693,-4.3692,-4.3692,0,-4.3626,-4.3615,-4.3664,-4.3664,-4.3665,-4.3701,-4.3701,-4.3727,-4.372,-4.3755,-4.3762,-4.375,-4.3777,-4.3762,-4.3789,-4.378,-4.3837,-4.3825,-4.3835,-4.3832,-4.3875,-4.3872,-4.402,-4.4038,-4.3901,-4.3902,-4.3903,0,-4.3693,-4.3726,-4.3731,-4.3747,-4.3752,-4.3779,-4.3794,-4.3774,-4.379,-4.3802,-4.3827,-4.3851,-4.3869,-4.3913,-4.3907,-4.3927,-4.3915,-4.3966,-4.3918,-4.3924,-4.3916,-4.3914,-4.3917,-4.3975,-4.3977,-4.3978,-4.3979,0,-4.3813,-4.3805,-4.3828,-4.3849,-4.3867,-4.3882,-4.3895,-4.391,-4.389,-4.391,-4.3937,-4.3951,-4.3979,-4.4003,-4.4021,-4.4022,-4.3998,-4.3994,-4.4005,-4.4012,-4.4017,-4.4015,-4.3861,-4.3991,-4.399,-4.3989,-4.3988,-4.3988,-4.3901,-4.3929,-4.3937,-4.3963,-4.397,-4.3983,-4.4007,-4.4004,-4.4026,-4.4048,-4.4035,-4.4067,-4.4073,-4.4094,-4.4099,-4.4123,-4.4103,-4.4119,-4.4123,-4.4127,-4.4133,-4.4013,-4.4127,-4.4126,-4.4126,-4.4126,-4.4125,0,-4.4019,-4.4023,-4.4047,-4.4066,-4.4086,-4.4062,-4.4074,-4.4092,-4.4121,-4.413,-4.4149,-4.418,-4.4203,-4.4199,-4.4219,-4.424,-4.4229,-4.4246,-4.4244,-4.4245,-4.415,-4.4139,-4.4254,-4.4254,-4.4254,-4.4254,-4.4254,-4.4254,-4.4083,-4.4129,-4.4123,-4.4172,-4.4174,-4.4206,-4.4215,-4.4226,-4.4233,-4.4269,-4.4289,-4.4286,-4.4289,-4.431,-4.433,-4.4328,-4.4337,-4.4358,-4.4352,-4.4264,-4.4251,-4.4239,-4.4228,-4.4361,-4.4361,-4.4445,-4.4445,-4.4446]}]]